This is the latest recevied weather packets stored in our database for station/object OE6ACM-10. If no packets are shown the sender has not sent any weather packets the latest 10 day(s).
| Time | Temp. | Humidity | Pressure | Rain* | Wind** | Luminosity | Snow |
|---|---|---|---|---|---|---|---|
| 1777909688 | 39.44° C | 31% | 922.2 hPa | - | - | - | - |
| 1777909388 | 40.56° C | 29% | 922.2 hPa | - | - | - | - |
| 1777909088 | 42.22° C | 27% | 922.2 hPa | - | - | - | - |
| 1777908788 | 42.78° C | 26% | 922.1 hPa | - | - | - | - |
| 1777908488 | 45.56° C | 25% | 922.1 hPa | - | - | - | - |
| 1777908188 | 46.67° C | 25% | 922.2 hPa | - | - | - | - |
| 1777907888 | 46.67° C | 25% | 922.3 hPa | - | - | - | - |
| 1777907588 | 46.11° C | 26% | 922.3 hPa | - | - | - | - |
| 1777907288 | 47.22° C | 23% | 922.3 hPa | - | - | - | - |
| 1777906988 | 47.22° C | 23% | 922.3 hPa | - | - | - | - |
| 1777906688 | 50° C | 24% | 922.4 hPa | - | - | - | - |
| 1777906388 | 47.78° C | 24% | 922.3 hPa | - | - | - | - |
| 1777906088 | 47.22° C | 25% | 922.4 hPa | - | - | - | - |
| 1777905788 | 47.22° C | 26% | 922.4 hPa | - | - | - | - |
| 1777905488 | 47.22° C | 26% | 922.4 hPa | - | - | - | - |
| 1777905188 | 47.78° C | 26% | 922.4 hPa | - | - | - | - |
| 1777904888 | 47.78° C | 25% | 922.4 hPa | - | - | - | - |
| 1777904588 | 47.78° C | 25% | 922.5 hPa | - | - | - | - |
| 1777904288 | 49.44° C | 24% | 922.5 hPa | - | - | - | - |
| 1777903988 | 49.44° C | 25% | 922.5 hPa | - | - | - | - |
| 1777903688 | 48.89° C | 26% | 922.5 hPa | - | - | - | - |
| 1777903388 | 46.67° C | 26% | 922.6 hPa | - | - | - | - |
| 1777903088 | 46.11° C | 29% | 922.7 hPa | - | - | - | - |
| 1777902788 | 46.11° C | 28% | 922.7 hPa | - | - | - | - |
| 1777902488 | 46.67° C | 27% | 922.7 hPa | - | - | - | - |
* Rain since midnight (hover to see other rain measurements)
** Current wind speed in m/s (hover to see current wind gust speed)